User: anonymous   Login
Location: Caltech
(34.1382°N, 118.1253°W)
Time: 08:04:13
(UTC-07:00)
Language:

Cosmos 2219 Rocket - Orbit

View from above orbital plane
View from above orbital plane
View from above satellite
View from above satellite

Ground track
Ground track

The orbit data is extracted from the following two-line orbital elements,

1 22220U 92076B   17147.91534118 +.00000207 +00000-0 +12800-3 0  9997
2 22220 070.9997 101.9206 0014721 298.9045 120.3247 14.16415782267577
Epoch (UTC): 27 May 2017 21:58:05
Eccentricity: 0.0014721
inclination: 70.9997°
perigee height: 827 km
apogee height: 848 km
right ascension of ascending node: 101.9206°
argument of perigee: 298.9045°
revolutions per day: 14.16415782
mean anomaly at epoch: 120.3247°
orbit number at epoch: 26757

The dashed part of the orbit path shows where the satellite is in the earth's shadow,  

DLR